When you browse on this site, cookies collect data to enhance your experience and personalize the content and advertising you see.
Visit our Privacy Policy to learn more. By continuing to use the site, you agree to this use of cookies and data.
  • In France
  • List of Countries
  • For 7 days
  • Water Temperature
  • Satellite Maps
  • Weather Map
  • Weather Widgets
  • user-avatar
    Login

    Hourly Weather Nakhchivan

    Today, 10 December, Monday

    Time Temperature Precipitation Wind Pressure Humidity
    00:00 +6°C° 0 mm 1 mps 687 mmHg 72%
    01:00 +6°C° 0 mm 1 mps 687 mmHg 72%
    02:00 +5°C° 0 mm 1 mps 687 mmHg 73%
    03:00 +5°C° 0 mm 1 mps 687 mmHg 73%
    04:00 +5°C° 0 mm 1 mps 687 mmHg 74%
    05:00 +5°C° 0 mm 1 mps 687 mmHg 74%
    06:00 +5°C° 0 mm 1 mps 687 mmHg 75%
    07:00 +6°C° 0 mm 1 mps 687 mmHg 71%
    08:00 +6°C° 0 mm 1 mps 687 mmHg 66%
    09:00 +8°C° 0 mm 1 mps 687 mmHg 61%
    10:00 +8°C° 0 mm 1 mps 687 mmHg 59%
    11:00 +9°C° 0 mm 1 mps 687 mmHg 57%
    12:00 +10°C° 0 mm 1 mps 686 mmHg 54%
    13:00 +9°C° 0 mm 2 mps 686 mmHg 53%
    14:00 +9°C° 0 mm 2 mps 686 mmHg 52%
    15:00 +9°C° 0 mm 2 mps 686 mmHg 52%
    16:00 +8°C° 0 mm 2 mps 686 mmHg 55%
    17:00 +7°C° 0 mm 2 mps 686 mmHg 58%
    18:00 +8°C° 0 mm 1 mps 686 mmHg 62%
    19:00 +7°C° 0 mm 1 mps 686 mmHg 62%
    20:00 +7°C° 0 mm 1 mps 687 mmHg 63%
    21:00 +7°C° 0 mm 1 mps 687 mmHg 64%
    22:00 +7°C° 0 mm 1 mps 687 mmHg 65%
    23:00 +6°C° 0 mm 1 mps 687 mmHg 65%

    Tomorrow, 11 December, Tuesday

    Time Temperature Precipitation Wind Pressure Humidity
    00:00 +6°C° 0 mm 1 mps 687 mmHg 66%
    01:00 +6°C° 0 mm 1 mps 687 mmHg 66%
    02:00 +6°C° 0 mm 1 mps 687 mmHg 66%
    03:00 +6°C° 0 mm 1 mps 686 mmHg 67%
    04:00 +5°C° 0 mm 1 mps 686 mmHg 67%
    05:00 +5°C° 0 mm 1 mps 686 mmHg 68%
    06:00 +5°C° 0 mm 1 mps 686 mmHg 69%
    07:00 +5°C° 0 mm 2 mps 686 mmHg 65%
    08:00 +7°C° 0 mm 2 mps 686 mmHg 61%
    09:00 +8°C° 0 mm 2 mps 687 mmHg 57%
    10:00 +9°C° 0 mm 2 mps 686 mmHg 54%
    11:00 +10°C° 0 mm 2 mps 685 mmHg 52%
    12:00 +11°C° 0 mm 3 mps 685 mmHg 49%
    13:00 +11°C° 0 mm 3 mps 685 mmHg 48%
    14:00 +12°C° 0 mm 3 mps 685 mmHg 48%
    15:00 +12°C° 0 mm 3 mps 684 mmHg 47%
    16:00 +11°C° 0 mm 3 mps 684 mmHg 51%
    17:00 +10°C° 0 mm 3 mps 685 mmHg 56%
    18:00 +9°C° 0 mm 3 mps 685 mmHg 60%
    19:00 +8°C° 0 mm 2 mps 685 mmHg 61%
    20:00 +8°C° 0 mm 2 mps 684 mmHg 62%
    21:00 +8°C° 0 mm 2 mps 684 mmHg 63%
    22:00 +8°C° 0 mm 2 mps 684 mmHg 63%
    23:00 +7°C° 0 mm 2 mps 684 mmHg 63%

    Day after tomorrow, 12 December, Wednesday

    Time Temperature Precipitation Wind Pressure Humidity
    00:00 +7°C° 0 mm 2 mps 684 mmHg 63%
    01:00 +7°C° 0 mm 2 mps 684 mmHg 65%
    02:00 +7°C° 0 mm 2 mps 684 mmHg 66%
    03:00 +7°C° 0 mm 2 mps 684 mmHg 68%
    04:00 +6°C° 0.2 mm 2 mps 684 mmHg 70%
    05:00 +6°C° 0.2 mm 2 mps 684 mmHg 73%
    06:00 +6°C° 0.2 mm 2 mps 684 mmHg 75%
    07:00 +7°C° 0.2 mm 2 mps 684 mmHg 73%
    08:00 +7°C° 0.2 mm 3 mps 684 mmHg 71%
    09:00 +8°C° 0.2 mm 3 mps 685 mmHg 69%
    10:00 +9°C° 0 mm 3 mps 684 mmHg 64%
    11:00 +10°C° 0 mm 4 mps 683 mmHg 58%
    12:00 +11°C° 0 mm 4 mps 683 mmHg 52%
    13:00 +12°C° 0.1 mm 4 mps 683 mmHg 51%
    14:00 +12°C° 0.1 mm 5 mps 682 mmHg 49%
    15:00 +13°C° 0.1 mm 5 mps 682 mmHg 47%
    16:00 +12°C° 0 mm 5 mps 682 mmHg 50%
    17:00 +11°C° 0 mm 4 mps 682 mmHg 52%
    18:00 +10°C° 0 mm 4 mps 682 mmHg 54%
    19:00 +10°C° 0 mm 4 mps 682 mmHg 56%
    20:00 +9°C° 0 mm 3 mps 682 mmHg 57%
    21:00 +9°C° 0 mm 3 mps 682 mmHg 58%
    22:00 +9°C° 0.1 mm 3 mps 682 mmHg 60%
    23:00 +8°C° 0.1 mm 3 mps 682 mmHg 61%

    13 December, Thursday

    Time Temperature Precipitation Wind Pressure Humidity
    00:00 +8°C° 0.1 mm 3 mps 682 mmHg 63%
    01:00 +8°C° 0.2 mm 3 mps 682 mmHg 65%
    02:00 +8°C° 0.2 mm 3 mps 682 mmHg 67%
    03:00 +8°C° 0.2 mm 3 mps 682 mmHg 69%
    04:00 +8°C° 0.3 mm 2 mps 682 mmHg 71%
    05:00 +7°C° 0.3 mm 2 mps 682 mmHg 73%
    06:00 +8°C° 0.3 mm 1 mps 682 mmHg 75%
    07:00 +8°C° 0.4 mm 1 mps 683 mmHg 75%
    08:00 +8°C° 0.4 mm 2 mps 683 mmHg 74%
    09:00 +8°C° 0.4 mm 2 mps 683 mmHg 74%
    10:00 +8°C° 0.2 mm 2 mps 683 mmHg 71%
    11:00 +9°C° 0.2 mm 2 mps 684 mmHg 68%
    12:00 +9°C° 0.2 mm 2 mps 684 mmHg 65%
    13:00 +9°C° 0 mm 2 mps 684 mmHg 62%
    14:00 +9°C° 0 mm 2 mps 684 mmHg 59%
    15:00 +10°C° 0 mm 2 mps 685 mmHg 56%
    16:00 +9°C° 0 mm 2 mps 685 mmHg 59%
    17:00 +8°C° 0 mm 2 mps 686 mmHg 61%
    18:00 +7°C° 0 mm 2 mps 686 mmHg 63%
    19:00 +7°C° 0 mm 2 mps 687 mmHg 62%
    20:00 +6°C° 0 mm 2 mps 687 mmHg 61%
    21:00 +6°C° 0 mm 2 mps 688 mmHg 60%
    22:00 +5°C° 0 mm 2 mps 688 mmHg 61%
    23:00 +5°C° 0 mm 2 mps 688 mmHg 61%

    14 December, Friday

    Time Temperature Precipitation Wind Pressure Humidity
    00:00 +5°C° 0 mm 2 mps 688 mmHg 62%
    01:00 +4°C° 0 mm 2 mps 689 mmHg 62%
    02:00 +4°C° 0 mm 2 mps 689 mmHg 63%
    03:00 +4°C° 0 mm 2 mps 690 mmHg 63%
    04:00 +3°C° 0 mm 2 mps 690 mmHg 64%
    05:00 +4°C° 0 mm 1 mps 690 mmHg 65%
    06:00 +4°C° 0 mm 1 mps 691 mmHg 66%
    07:00 +4°C° 0 mm 1 mps 691 mmHg 63%
    08:00 +5°C° 0 mm 1 mps 691 mmHg 60%
    09:00 +6°C° 0 mm 1 mps 691 mmHg 57%
    10:00 +7°C° 0 mm 1 mps 691 mmHg 54%
    11:00 +8°C° 0 mm 1 mps 690 mmHg 52%
    12:00 +8°C° 0 mm 2 mps 690 mmHg 49%
    13:00 +8°C° 0 mm 2 mps 689 mmHg 49%
    14:00 +9°C° 0 mm 1 mps 689 mmHg 49%
    15:00 +9°C° 0 mm 1 mps 689 mmHg 50%
    16:00 +7°C° 0 mm 2 mps 689 mmHg 52%
    17:00 +6°C° 0 mm 2 mps 689 mmHg 55%
    18:00 +5°C° 0 mm 2 mps 689 mmHg 58%
    19:00 +5°C° 0 mm 2 mps 689 mmHg 59%
    20:00 +5°C° 0 mm 2 mps 689 mmHg 59%
    21:00 +5°C° 0 mm 2 mps 689 mmHg 59%
    22:00 +6°C° 0 mm 1 mps 689 mmHg 60%
    23:00 +6°C° 0 mm 1 mps 689 mmHg 61%

    15 December, Saturday

    Time Temperature Precipitation Wind Pressure Humidity
    00:00 +5°C° 0 mm 1 mps 689 mmHg 62%
    01:00 +5°C° 0 mm 1 mps 689 mmHg 63%
    02:00 +5°C° 0 mm 1 mps 689 mmHg 64%
    03:00 +5°C° 0 mm 1 mps 689 mmHg 65%
    04:00 +5°C° 0 mm 1 mps 689 mmHg 66%
    05:00 +5°C° 0 mm 1 mps 689 mmHg 67%
    06:00 +5°C° 0 mm 1 mps 689 mmHg 68%
    07:00 +6°C° 0 mm 1 mps 690 mmHg 65%
    08:00 +6°C° 0 mm 1 mps 690 mmHg 62%
    09:00 +7°C° 0 mm 1 mps 691 mmHg 59%
    10:00 +8°C° 0.1 mm 1 mps 690 mmHg 57%
    11:00 +9°C° 0.1 mm 1 mps 690 mmHg 55%
    12:00 +9°C° 0.1 mm 1 mps 690 mmHg 53%
    13:00 +8°C° 0.1 mm 2 mps 690 mmHg 53%
    14:00 +8°C° 0.1 mm 2 mps 690 mmHg 53%
    15:00 +9°C° 0.1 mm 2 mps 690 mmHg 53%
    16:00 +9°C° 0 mm 1 mps 690 mmHg 56%
    17:00 +8°C° 0 mm 1 mps 691 mmHg 59%
    18:00 +7°C° 0 mm 1 mps 691 mmHg 62%
    19:00 +7°C° 0 mm 1 mps 691 mmHg 64%
    20:00 +7°C° 0 mm 1 mps 691 mmHg 65%
    21:00 +6°C° 0 mm 1 mps 692 mmHg 66%
    22:00 +6°C° 0 mm 1 mps 692 mmHg 67%
    23:00 +6°C° 0 mm 1 mps 692 mmHg 68%
    Show more